Regional Weather Roundup
Issued by NWS Mobile, AL

Home | Current Version | Previous Version | Text Only | Print | Product List | Glossary On
Versions: 1 2 3 4 5 6 7 8 9 10 11 12 13 14 15 16 17 18 19 20 21 22 23 24 25 26 27
000
ASUS44 KMOB 241412
RWRMOB
REGIONAL WEATHER ROUNDUP
NATIONAL WEATHER SERVICE MOBILE AL
900 AM CDT WED AUG 24 2016

NOTE: "FAIR" INDICATES FEW OR NO CLOUDS BELOW 12,000 FEET WITH NO
      SIGNIFICANT WEATHER AND/OR OBSTRUCTIONS TO VISIBILITY.

  * THESE STATIONS ARE PART OF THE UNIVERSITY OF SOUTH ALABAMA
    MESONET AND ARE NOT UNDER NWS OR FAA QUALITY CONTROL.

ALZ061>064-241500-
COASTAL ALABAMA

CITY           SKY/WX    TMP DP  RH WIND       PRES   REMARKS
MOBILE REG APT PTSUNNY   84  77  79 E7        30.18S
BROOKLEY FIELD MOSUNNY   84  79  85 E6        30.18S HX  96
USA CAMPUS*    NOT AVBL
DOG RIVER*     NOT AVBL


CITY           SKY/WX    TMP DP  RH WIND       PRES   REMARKS
MOUNT VERNON*  NOT AVBL
SARALAND*      NOT AVBL
BAY MINETTE*   NOT AVBL
LOXLEY*        NOT AVBL
ROBERTSDALE*   NOT AVBL
FAIRHOPE*      NOT AVBL
ELBERTA*       NOT AVBL
FOLEY*         NOT AVBL
GRAND BAY*     NOT AVBL
DAUPHIN ISLND* NOT AVBL
BON SCOUR NWR* NOT AVBL
GULF SHORES    PTSUNNY   85  83  94 E10G18    30.16S HX 102

$$

ALZ051>060-241500-
INTERIOR SOUTHWEST AND SOUTH CENTRAL ALABAMA

CITY           SKY/WX    TMP DP  RH WIND       PRES   REMARKS
GREENVILLE     CLOUDY    82  74  76 S7        30.22S
EVERGREEN      CLOUDY    81  74  79 E8        30.21S
CASTLEBERRY*   NOT AVBL
ATMORE*        NOT AVBL
DIXIE*         NOT AVBL
ANDALUSIA/OPP  MOSUNNY   85  75  72 SE7       30.21S
ANDALUSIA*     NOT AVBL
FLORALA APT    MOSUNNY   81  75  82 VRB6      30.23R
FLORALA*       NOT AVBL

$$

FLZ001>006-241500-
WESTERN FLORIDA PANHANDLE

CITY           SKY/WX    TMP DP  RH WIND       PRES   REMARKS
PENSACOLA      SUNNY     83  76  79 E8        30.17R
NAS PENSACOLA  PTSUNNY   84  79  85 E8        30.16S HX  96
MILTON         MOSUNNY   82  75  79 E5        30.19R
WHTNG S FIELD  MOSUNNY   85  77  77 SE5       30.18S HX  95


CITY           SKY/WX    TMP DP  RH WIND       PRES   REMARKS
WALNUT HILL*   NOT AVBL
JAY*           NOT AVBL
DUKE FIELD     MOSUNNY   83  75  78 E7        30.19R
CRESTVIEW      SUNNY     83  75  77 E6        30.20S
VALPARAISO     MOSUNNY   83  76  79 E5        30.18S
DESTIN         SUNNY     85  78  80 E9        30.17S HX  96

$$

MSZ076-079-241500-
INTERIOR SOUTHEAST MISSISSIPPI

CITY           SKY/WX    TMP DP  RH WIND       PRES   REMARKS
LEAKESVILLE*   NOT AVBL
AGRICOLA*      NOT AVBL

$$

MARINE OBSERVATIONS

STATION/POSITION TIME  TEMP    WIND        PRES    WAVE
                       AIR SEA DIR/SP/G            HT/PER
                 (UTC) (F)     (DEG/KT/KT) (MB)    (FT/S)
PASCAGOULA       1300   83      20/  4/  6 1021.0R
PETIT BOIS ISLND 1300   85      40/  8/ 10 1021.7R
GRAND BAY        1200   80      10/  3     1022.0R
KATRINA CUT      1300   84      80/ 11     1022.0R
CEDAR POINT      1300   83      90/  9     1021.0R
E DAUPHIN ISLAND 1300   84      90/  7/  8 1020.7R
MIDDLE BAY LIGHT 1300   82      90/ 10     1021.3R
USCG MOBILE BAY  1300   82 88   90/  5/  8 1021.9R
STATE DOCKS      1300   82 87              1021.6R
MEAHER PARK      1300   81     100/  5     1021.3R
WEEKS BAY        1200   78                   N/A
FORT MORGAN      1300   84     110/  9/ 11 1020.5R
12 S ORANGE BCH  1350   85 87  100/  8/ 10 1021.1R   1/ 3
PENSACOLA BAY    1300   84 88  120/  2/  7 1021.6R
64 S DAUPHIN ISL 1300   85 89  320/  6/  8 1020.3F
67 S FORT MORGAN 1330   86      30/  4     1020.3F

$$

SELECTED LOCATIONS ACROSS THE REGION

CITY           SKY/WX    TMP DP  RH WIND       PRES   REMARKS
NEW ORLEANS    MOSUNNY   89  78  70 N8        30.16R HX 103
GULFPORT       SUNNY     82  77  84 N5        30.16R
PASCAGOULA AP  SUNNY     87  79  76 N6        30.16S HX 101
PASCAGOULA*    NOT AVBL
HATTIESBURG    SUNNY     83  76  79 CALM      30.19S
LAUREL         SUNNY    N/A N/A N/A E3        30.20S
MERIDIAN       SUNNY     87  75  67 VRB3      30.20R HX  96
JACKSON        SUNNY     83  75  77 CALM      30.19R
MONTGOMERY     MOSUNNY   83  73  72 SE6       30.23R
TROY           PTSUNNY   80  76  87 E9        30.24S
KINSTON*       NOT AVBL
GENEVA*        NOT AVBL
ASHFORD*       NOT AVBL
DOTHAN         CLOUDY    78  78 100 E8        30.26R
PANAMA CITY    PTSUNNY   81  77  88 NE5       30.18R

$$





USA.gov is the U.S. government's official web portal to all federal, state and local government web resources and services.